SCP
0 0 0 0 0 0 0 0 0 0 0 0 0 0 0 0 0 0 0 0 0 0 0 0 0 0 0 0 0 0 0 0 0 0 0 0 0 0 0 0 0 0 0
0 0 0 0 0 0 0 0 0 0 0 0 0 0 0 0 0 0 0 0 0 0 0 0 0 0 0 0 0 0 0 0 0 0 0 0 0 0 0 0 0 0 0
0 0 0 0 0 0 0 0 0 0 0 0 0 0 0 0 0 0 0 0 0 0 0 0 0 0 0 0 0 0 0 0 0 0 0 0 0 0 0 0 0 0 0
0 0 0 0 0 0 0 0 0 0 0 0 0 0 0 0 0 0 0 0 0 0 0 0 0 0 0 0 0 0 0 0 0 0 0 0 0 0 0 0 0 0 0
0 0 0 0 0 0 0 0 0 0 0 0 0 0 0 0 0 0 0 0 0 0 0 0 0 0 0 0 0 0 0 0 0 0 0 0 0 0 0 0 0 0 0
0 0 0 0 0 0 0 0 0 0 0 0 0 0 0 0 0 0 0 0 0 0 0 0 0 0 0 0 0 0 0 0 0 0 0 0 0 0 0 0 0 0 0
0 0 0 0 0 0 0 0 0 0 0 0 0 0 0 0 0 0 0 0 0 0 0 0 0 0 0 0 0 0 0 0 0 0 0 0 0 0 0 0 0 0 0
0 0 0 0 0 0 0 0 0 0 0 0 0 0 0 0 0 0 0 0 0 0 0 0 0 0 0 0 0 0 0 0 0 0 0 0 0 0 0 0 0 0 0
0 0 0 0 0 0 0 0 0 0 0 0 0 0 0 0 0 0 0 0 0 0 0 0 0 0 0 0 0 0 0 0 0 0 0 0 0 0 0 0 0 0 0
0 0 0 0 0 0 0 0 0 0 0 0 0 0 0 0 0 0 0 0 0 0 0 0 0 0 0 0 0 0 0 0 0 0 0 0 0 0 0 0 0 0 0
0 0 0 0 0 0 0 0 0 0 0 0 0 0 0 0 0 0 0 0 0 0 0 0 0 0 0 0 0 0 0 0 0 0 0 0 0 0 0 0 0 0 0
0 0 0 0 0 0 0 0 0 0 0 0 0 0 0 0 0 0 0 0 0 0 0 0 0 0 0 0 0 0 0 0 0 0 0 0 0 0 0 0 0 0 0
0 0 0 0 0 0 0 0 0 0 0 0 0 0 0 0 0 0 0 0 0 0 0 0 0 0 0 0 0 0 0 0 0 0 0 0 0 0 0 0 0 0 0
0 0 0 0 0 0 0 0 0 0 0 0 0 0 0 0 0 0 0 0 0 0 0 0 0 0 0 0 0 0 0 0 0 0 0 0 0 0 0 0 0 0 0
0 0 0 0 0 0 0 0 0 0 0 0 0 0 0 0 0 0 0 0 0 0 0 0 0 0 0 0 0 0 0 0 0 0 0 0 0 0 0 0 0 0 0
0 0 0 0 0 0 0 0 0 0 0 0 0 0 0 0 0 0 0 0 0 0 0 0 0 0 0 0 0 0 0 0 0 0 0 0 0 0 0 0 0 0 0
0 0 0 0 0 0 0 0 0 0 0 0 0 0 0 0 0 0 0 0 0 0 0 0 0 0 0 0 0 0 0 0 0 0 0 0 0 0 0 0 0 0 0
0 0 0 0 0 0 0 0 0 0 0 0 0 0 0 0 0 0 0 0 0 0 0 0 0 0 0 0 0 0 0 0 0 0 0 0 0 0 0 0 0 0 0
0 0 0 0 0 0 0 0 0 0 0 0 0 0 0 0 0 0 0 0 0 0 0 0 0 0 0 0 0 0 0 0 0 0 0 0 0 0 0 0 0 0 0
0 0 0 0 0 0 0 0 0 0 0 0 0 0 0 0 0 0 0 0 0 0 0 0 0 0 0 0 0 0 0 0 0 0 0 0 0 0 0 0 0 0 0
0 0 0 0 0 0 0 0 0 0 0 0 0 0 0 0 0 0 0 0 0 0 0 0 0 0 0 0 0 0 0 0 0 0 0 0 0 0 0 0 0 0 0
0 0 0 0 0 0 0 0 0 0 0 0 0 0 0 0 0 0 0 0 0 0 0 0 0 0 0 0 0 0 0 0 0 0 0 0 0 0 0 0 0 0 0
0 0 0 0 0 0 0 0 0 0 0 0 0 0 0 0 0 0 0 0 0 0 0 0 0 0 0 0 0 0 0 0 0 0 0 0 0 0 0 0 0 0 0
0 0 0 0 0 0 0 0 0 0 0 0 0 0 0 0 0 0 0 0 0 0 0 0 0 0 0 0 0 0 0 0 0 0 0 0 0 0 0 0 0 0 0
0 0 0 0 0 0 0 0 0 0 0 0 0 0 0 0 0 0 0 0 0 0 0 0 0 0 0 0 0 0 0 0 0 0 0 0 0 0 0 0 0 0 0
0 0 0 0 0 0 0 0 0 0 0 0 0 0 0 0 0 0 0 0 0 0 0 0 0 0 0 0 0 0 0 0 0 0 0 0 0 0 0 0 0 0 0
Wind_Speed
3 3 2 2 3 2 3 2 1 1 0 1 1 1 2 3 2 1 2 6 6 7 8 8 7 7 7 7 7 8 8 8 7 8 8 8 7 7 7 8 7 7 7
3 3 3 2 2 2 2 2 1 2 2 1 2 2 3 3 3 3 2 5 9 9 11 11 11 11 11 11 11 11 11 11 11 11 11 11 11 11 11 11 10 10 10
4 4 3 3 2 2 2 1 1 1 1 2 3 4 3 4 4 4 4 3 5 10 13 15 15 15 15 14 14 14 14 14 14 14 14 14 14 14 14 14 14 13 13
4 4 3 3 3 3 2 2 2 2 2 3 3 3 3 4 5 5 5 5 4 5 9 16 17 18 18 18 18 17 17 17 17 17 17 17 18 18 17 17 17 17 16
5 4 3 3 4 3 3 3 2 2 3 3 3 3 4 4 5 5 7 7 6 6 5 9 14 16 19 20 20 20 21 20 20 20 20 20 21 21 21 21 20 20 20
6 5 4 4 4 3 3 4 4 3 3 3 3 4 5 6 5 6 8 7 7 8 7 7 7 9 16 21 22 23 23 23 23 22 23 23 23 23 24 24 24 23 23
6 5 4 4 5 5 5 5 4 4 4 2 1 4 5 7 9 8 7 7 8 8 7 8 6 6 7 17 22 24 25 25 25 25 25 25 25 26 26 26 26 27 26
7 6 6 5 5 5 5 5 4 3 3 3 3 2 4 4 5 8 6 6 7 5 7 8 8 8 7 6 11 21 24 26 27 27 27 26 26 27 27 28 28 29 29
7 7 7 6 5 5 5 6 6 6 4 3 4 4 3 4 4 3 5 6 6 5 6 6 8 9 9 8 8 15 22 25 26 27 28 28 27 28 28 29 29 29 30
7 7 6 6 6 5 6 6 6 5 5 4 4 5 6 3 3 5 3 4 5 6 7 6 7 9 9 8 10 14 18 22 24 26 27 28 29 29 29 29 30 30 30
5 5 5 5 5 5 5 5 5 6 5 5 4 3 5 4 5 6 8 5 4 5 6 7 7 7 8 9 8 12 18 21 23 23 25 27 28 29 30 31 31 31 31
2 2 2 2 3 3 4 4 4 5 5 6 5 4 4 4 4 6 9 8 8 6 6 6 7 7 8 8 11 15 18 21 23 23 24 25 27 28 30 31 31 31 31
2 2 1 1 0 1 2 2 3 4 5 5 6 5 5 6 5 5 8 10 11 8 6 5 7 7 7 7 8 15 16 19 22 23 23 24 26 27 28 30 31 31 31
3 3 3 3 3 3 2 2 2 2 3 4 5 5 5 5 5 5 6 8 13 11 7 7 4 6 6 6 9 13 10 16 20 23 24 24 26 27 27 29 30 30 31
3 4 4 4 4 4 4 3 2 3 3 3 4 5 5 4 4 5 5 6 9 16 16 6 3 4 4 5 9 8 8 13 18 21 23 24 25 26 27 28 29 29 30
5 5 5 4 4 5 5 4 3 4 4 4 3 5 5 4 4 4 5 5 6 11 17 10 5 4 4 5 8 9 9 14 17 19 21 23 24 26 27 27 28 28 29
5 5 5 5 5 5 5 4 4 5 5 5 5 5 6 6 5 5 5 5 6 7 15 16 7 5 6 7 7 7 8 9 10 16 20 22 24 24 25 26 26 27 27
5 5 5 5 5 5 5 5 5 5 6 6 7 7 8 6 7 6 6 7 7 7 11 18 13 8 8 8 8 9 8 8 8 14 19 21 22 23 23 24 24 25 25
5 5 5 5 5 5 4 4 5 5 6 6 7 7 8 8 8 7 8 8 8 8 8 12 16 11 8 6 8 8 8 8 8 11 16 19 20 21 22 23 23 22 21
5 5 5 4 4 4 4 4 5 5 6 7 7 7 8 8 8 8 8 8 8 9 9 11 13 12 10 8 6 8 10 7 8 8 12 13 16 18 20 21 20 19 20
4 4 4 4 4 4 3 5 5 6 7 8 8 7 8 9 11 10 9 9 9 9 9 10 11 12 11 9 8 7 11 11 9 5 7 7 8 8 9 13 15 17 19
4 4 4 4 4 4 8 10 8 6 7 8 8 8 8 8 10 14 15 15 14 12 11 11 11 12 13 11 10 9 11 11 11 4 6 8 5 7 6 6 13 17 17
4 4 4 4 5 7 11 11 11 7 7 7 8 8 7 7 8 8 12 15 13 15 16 13 14 14 14 12 12 13 11 12 12 8 7 9 5 7 5 7 14 14 13
4 4 4 5 5 7 12 13 12 7 6 7 7 8 9 9 8 11 10 10 9 9 12 9 10 12 12 11 10 11 12 11 9 6 4 8 6 6 5 5 10 11 11
4 4 4 5 6 8 12 13 12 5 6 8 7 7 8 9 13 16 12 11 12 9 11 14 15 15 17 17 14 9 9 9 9 6 2 4 5 6 4 3 5 10 10
4 5 6 5 6 7 11 13 12 4 7 7 7 7 8 12 15 16 10 10 12 11 9 9 10 11 10 10 12 8 7 8 7 6 3 4 4 4 4 3 4 5 6
Wind_Direction
165 152 150 148 165 150 158 189 179 157 217 271 297 308 306 311 313 301 167 200 220 242 251 249 245 243 242 241 241 242 243 241 239 240 239 236 232 228 223 219 215 210 205
163 157 156 160 173 156 163 173 197 185 220 227 254 258 269 281 277 278 241 215 223 236 248 254 254 252 249 246 245 244 244 243 242 241 241 241 239 236 232 230 227 224 221
169 167 168 173 186 167 157 170 240 226 247 240 251 252 251 262 269 268 262 240 227 230 238 247 252 254 254 252 249 248 247 245 243 240 239 240 239 238 237 234 232 230 228
186 172 173 182 178 162 167 191 211 219 239 239 247 253 242 245 251 253 254 248 239 234 233 240 247 251 254 255 254 252 249 246 244 242 240 239 238 237 237 236 234 233 232
195 181 182 184 170 167 182 199 212 211 235 240 244 254 254 250 247 246 247 247 243 241 237 240 242 247 252 255 256 256 255 251 247 244 242 240 239 238 237 236 235 234 233
193 189 188 187 172 178 198 204 216 221 234 247 266 265 258 253 249 245 246 246 243 241 238 241 242 245 248 254 257 259 259 258 254 250 246 243 241 240 239 237 236 235 233
192 192 193 192 186 198 208 206 207 223 235 210 263 284 269 246 241 242 239 241 245 242 238 239 240 243 249 254 257 259 260 261 261 258 254 249 246 243 241 239 237 236 234
195 195 198 200 199 205 213 211 202 206 227 180 192 267 300 296 254 239 234 236 243 244 243 242 240 242 244 247 254 259 262 264 265 265 263 260 255 251 247 244 241 239 237
198 196 202 204 203 203 216 215 205 206 227 212 197 214 253 271 306 282 240 235 237 240 243 244 243 243 243 242 249 257 260 264 267 269 270 269 266 262 257 252 248 244 242
198 199 201 204 207 207 217 220 211 210 217 230 213 220 235 262 282 296 283 259 246 243 244 244 244 244 242 242 243 245 252 259 264 267 270 271 272 271 269 265 259 253 249
188 193 198 204 212 215 220 222 217 215 216 227 223 213 229 243 236 263 284 280 268 249 245 245 246 247 244 241 241 243 247 254 259 263 266 269 271 272 273 272 270 265 259
136 169 193 202 216 222 225 228 227 226 227 233 237 226 220 230 232 243 274 285 282 269 249 243 245 245 245 243 243 245 246 252 258 262 265 267 269 271 271 272 272 271 268
70 51 45 24 300 278 265 250 244 245 238 240 242 243 239 244 245 253 273 287 289 284 260 243 238 243 246 245 247 248 249 252 259 263 265 266 268 269 270 271 271 272 271
60 39 36 28 19 7 353 333 295 281 273 263 262 258 256 254 248 247 260 284 293 292 272 256 245 240 249 250 253 254 257 254 258 263 266 267 268 269 269 270 270 270 270
52 42 36 27 17 9 359 349 335 322 312 292 287 282 275 272 264 259 256 258 280 295 294 276 265 251 253 256 260 262 260 260 261 265 267 268 269 270 271 271 271 271 270
51 46 38 31 24 17 8 0 345 340 334 321 311 304 295 293 288 278 271 266 262 278 288 291 280 276 275 270 269 267 265 268 265 267 269 270 271 272 273 273 273 272 272
49 43 35 32 26 16 8 2 354 350 339 328 325 317 308 306 301 296 290 281 275 275 283 292 294 298 296 288 285 273 271 270 271 268 269 272 273 273 274 274 274 275 274
45 38 32 32 25 16 9 5 352 346 336 327 323 319 312 313 307 307 304 299 293 289 288 293 298 302 295 292 288 285 280 275 271 274 274 276 276 277 277 276 277 277 276
39 33 32 27 17 5 358 358 347 336 328 320 318 314 311 312 306 305 304 300 298 297 292 292 295 300 297 296 295 291 284 280 278 279 279 278 279 280 281 280 280 279 277
34 27 22 14 2 348 350 354 340 330 322 316 311 307 306 305 304 309 304 299 301 298 294 290 292 297 299 301 297 301 301 291 285 282 281 282 283 281 281 282 283 282 280
26 17 10 0 353 346 350 344 335 328 320 313 308 304 303 304 302 302 301 302 302 297 296 294 293 297 299 308 306 304 299 301 292 277 285 283 283 279 280 283 284 283 282
17 11 5 353 345 336 333 335 334 321 312 306 305 305 304 302 305 307 305 304 302 299 299 295 295 295 299 303 305 303 302 303 300 300 297 293 286 281 279 275 287 289 285
5 359 350 344 330 323 330 329 328 317 304 301 302 305 305 304 303 301 303 304 298 292 293 291 292 294 299 304 304 301 298 295 293 300 299 293 288 282 285 287 296 295 292
353 341 332 328 318 316 324 324 324 313 301 298 299 299 302 306 306 308 305 301 296 292 293 290 285 290 296 299 295 295 297 294 287 285 281 286 296 294 298 295 304 307 306
336 328 320 317 312 312 318 319 323 310 304 303 301 299 299 300 307 315 312 305 303 299 303 302 299 300 304 307 309 306 302 299 297 298 295 288 297 305 308 315 323 327 325
319 320 315 309 301 300 311 318 323 309 306 308 305 300 298 308 313 318 312 306 305 308 311 310 306 307 306 307 313 307 304 300 300 301 330 317 305 322 319 330 344 344 337